Tracking 35275 objects as of 8-Sep-2026
HD Live streaming from Space Station
objects crossing your sky now

NOAA 16 DEB

Track NOAA 16 DEB now!
10-day predictions


NORAD ID: 41084
Int'l Code: 2000-055AT
Launch date: September 21, 2000
Source: United States (US)
Launch site: AIR FORCE WESTERN TEST RANGE (AFWTR)

Note: This is SATELLITE DEBRIS
Your satellite tracking list
Your tracking list is empty




NASA's NSSDC Master Catalog

Two Line Element Set (TLE):
1 41084U 00055AT  26251.22733174  .00000799  00000-0  36794-3 0  9999
2 41084  98.6910 336.8489 0014755 344.6712  15.4018 14.23831171557986
Source of the keplerian elements: AFSPC